Content
SEND FEEDBACK

Daily
Averages
Monthly
Summary
United States of America

BAYSIDE, NEW YORK


Home > North America > United States > New York
Elevation: 11 feet     Latitude: 40 46N     Longitude: 073 54W

WEATHER
 
SELECT A DAY
Number of Records: 191,080;   Date Range: 1/1/95 - 7/26/14
 
SHARE

PRINT THIS DATA

[ ← Previous Day ]
WEATHER ALMANAC - FEBRUARY 8, 2013
[ Next Day → ]
[ °C ]   °F
Weather ElementAverageHighLow
Temperature32.9 °F36 °F (9:51 am)28 °F (11:51 pm)
Dewpoint28.8 °F30.9 °F (7:51 am)23 °F (1:51 am)
Humidity85.5 %93 % (10:04 pm)66 % (1:51 am)
Barometer29.84 in30.29 in (1:51 am)29.63 in (8:33 pm)
Wind Speed19.9 mph28.8 mph (2:51 pm)
Wind Gust40.3 mph (3:03 pm)
Weather ElementAverage
Visibility2.6 mi
Wind DirectionESE (97.3 °)

Weather ElementTotal
Precipitation1.26 in
Heating Degree Days33 (Base 65)
Averaged from 51 records on February 8, 2013
WEATHER CONDITIONS BREAKOUT
WIND DIRECTION BREAKOUT
WEATHER BY HOUR - FEBRUARY 8, 2013
[ °C ]   °F
Local TimeTemperatureDewpointHumidityBarometerVisibilityWind DirectionWind SpeedGust SpeedPrecipitationEventsConditions
1:51 AM33.1 °F23.0 °F66 %30.29 in10.0 miENE (60°)11.5 mphOvercast
2:51 AM33.1 °F24.1 °F70 %30.26 in10.0 miENE (60°)12.7 mphOvercast
3:51 AM33.1 °F23.0 °F66 %30.22 in10.0 miENE (70°)15.0 mphOvercast
4:51 AM33.1 °F24.1 °F70 %30.20 in10.0 miENE (60°)12.7 mphOvercast
5:51 AM33.1 °F28.0 °F82 %30.17 in10.0 miNE (50°)19.6 mph25.3 mphOvercast
6:27 AM33.8 °F28.4 °F81 %30.15 in2.0 miENE (60°)18.4 mph0.00 inSnowLight Snow
6:51 AM32.0 °F28.9 °F88 %30.14 in3.0 miENE (60°)17.3 mph0.00 inSnowLight Snow
7:04 AM32.0 °F28.4 °F87 %30.14 in1.0 miENE (60°)16.1 mph0.00 inSnowLight Snow
7:33 AM33.8 °F30.2 °F87 %30.13 in1.0 miENE (60°)16.1 mph0.01 inSnowLight Snow
7:49 AM33.8 °F30.2 °F87 %30.12 in2.0 miENE (60°)16.1 mph0.02 inSnowLight Snow
7:51 AM35.1 °F30.9 °F85 %30.12 in2.0 miENE (60°)15.0 mph0.02 inSnowLight Snow
8:51 AM35.1 °F30.9 °F85 %30.09 in2.5 miENE (60°)16.1 mph0.01 inSnowLight Snow
9:51 AM36.0 °F30.9 °F82 %30.04 in4.0 miENE (60°)20.7 mph29.9 mph0.02 inSnowLight Snow
10:51 AM34.0 °F30.9 °F89 %29.99 in5.0 miENE (60°)25.3 mph29.9 mph0.06 inRainLight Rain
11:20 AM33.8 °F30.2 °F87 %29.96 in6.0 miENE (60°)25.3 mph0.02 inRainRain
11:41 AM35.6 °F30.2 °F81 %29.94 in4.0 miENE (60°)24.2 mph32.2 mph0.04 inRainLight Ice Pellets
11:51 AM35.1 °F30.9 °F85 %29.94 in5.0 miENE (60°)26.5 mph38.0 mph0.04 inRainLight Rain
12:51 PM33.1 °F30.0 °F89 %29.87 in3.0 miNE (50°)27.6 mph36.8 mph0.06 inRainLight Rain
1:51 PM33.1 °F30.0 °F89 %29.81 in5.0 miNE (50°)26.5 mph38.0 mph0.03 inRain-SnowLight Snow
2:00 PM33.8 °F30.2 °F87 %29.80 in1.5 miNE (50°)27.6 mph38.0 mph0.00 inSnowLight Snow
2:30 PM33.8 °F30.2 °F87 %29.76 in2.0 miNE (50°)26.5 mph38.0 mph0.02 inSnowLight Snow
2:51 PM33.1 °F30.0 °F89 %29.75 in2.0 miNE (50°)28.8 mph39.1 mph0.02 inSnowLight Snow
3:03 PM33.8 °F30.2 °F87 %29.74 in1.2 miNE (50°)25.3 mph40.3 mph0.01 inSnowLight Snow
3:12 PM33.8 °F30.2 °F87 %29.74 in1.0 miNE (50°)28.8 mph39.1 mph0.03 inSnowLight Snow
3:32 PM33.8 °F30.2 °F87 %29.72 in1.5 miNE (40°)24.2 mph36.8 mph0.05 inSnowLight Snow
3:42 PM33.8 °F30.2 °F87 %29.72 in2.0 miNE (40°)26.5 mph36.8 mph0.06 inSnowLight Snow
3:51 PM33.1 °F30.0 °F89 %29.72 in2.0 miNE (40°)26.5 mph35.7 mph0.06 inSnowLight Snow
4:04 PM33.8 °F30.2 °F87 %29.72 in1.5 miNE (40°)21.9 mph29.9 mph0.02 inSnowLight Snow
4:12 PM33.8 °F30.2 °F87 %29.71 in1.2 miNE (40°)20.7 mph28.8 mph0.02 inSnowLight Snow
4:18 PM33.8 °F30.2 °F87 %29.71 in1.0 miNE (40°)20.7 mph28.8 mph0.03 inSnowLight Snow
4:27 PM33.8 °F30.2 °F87 %29.71 in0.8 miNNE (30°)21.9 mph32.2 mph0.04 inSnowLight Snow
4:41 PM33.8 °F30.2 °F87 %29.70 in0.5 miNNE (30°)17.3 mph31.1 mph0.07 inFog-SnowSnow
4:51 PM33.1 °F30.0 °F89 %29.70 in0.5 miNNE (30°)17.3 mph25.3 mph0.08 inFog-SnowSnow
4:59 PM33.8 °F30.2 °F87 %29.69 in0.8 miNNE (30°)18.4 mph26.5 mph0.01 inSnowLight Snow
5:23 PM33.8 °F30.2 °F87 %29.68 in0.8 miNNE (30°)17.3 mph25.3 mph0.02 inSnowLight Snow
5:51 PM33.1 °F30.0 °F89 %29.67 in0.8 miNNE (20°)17.3 mph31.1 mph0.05 inSnowLight Snow
5:57 PM33.8 °F30.2 °F87 %29.67 in0.8 miNNE (20°)18.4 mph31.1 mph0.00 inSnowLight Snow
6:11 PM33.8 °F30.2 °F87 %29.66 in0.8 miNNE (20°)18.4 mph26.5 mph0.01 inSnowLight Snow
6:33 PM32.0 °F28.4 °F87 %29.65 in0.8 miNNE (20°)17.3 mph25.3 mph0.02 inSnowLight Snow
6:51 PM32.0 °F28.0 °F85 %29.65 in2.0 miNNE (20°)19.6 mph27.6 mph0.03 inSnowLight Snow
7:14 PM32.0 °F28.4 °F87 %29.65 in1.5 miNNE (20°)17.3 mph27.6 mph0.01 inSnowLight Snow
7:51 PM30.9 °F28.0 °F89 %29.64 in1.5 miNorth (10°)18.4 mph26.5 mph0.04 inSnowLight Snow
8:33 PM30.2 °F26.6 °F86 %29.63 in2.0 miNorth (360°)18.4 mph25.3 mph0.02 inSnowLight Snow
8:51 PM30.9 °F27.0 °F85 %29.64 in2.0 miNorth (360°)13.8 mph25.3 mph0.03 inSnowLight Snow
9:51 PM30.9 °F27.0 °F85 %29.66 in2.0 miNNW (340°)15.0 mph23.0 mph0.02 inSnowLight Snow
10:04 PM30.2 °F28.4 °F93 %29.67 in1.0 miNNW (340°)15.0 mph24.2 mph0.00 inSnowLight Snow
10:19 PM30.2 °F26.6 °F86 %29.68 in1.0 miNNW (330°)17.3 mph23.0 mph0.01 inSnowLight Snow
10:43 PM30.2 °F26.6 °F86 %29.69 in0.8 miNNW (340°)17.3 mph25.3 mph0.03 inSnowLight Snow
10:51 PM28.9 °F27.0 °F92 %29.70 in0.8 miNNW (330°)15.0 mph25.3 mph0.04 inSnowLight Snow
11:25 PM28.4 °F26.6 °F93 %29.73 in0.5 miNNW (330°)19.6 mph25.3 mph0.03 inFog-SnowSnow
11:51 PM28.0 °F25.0 °F88 %29.74 in0.5 miNNW (340°)21.9 mph26.5 mph0.05 inFog-SnowSnow
Hourly data recorded from KLGA, located miles away from Bayside, New York







STORIES FROM OUR PARTNERS